Theta_e
313 313 312 315 315 315 321 324 324 326 326 326 327 325 323 325 324 322 323 322 330 340 342 340 340 341 347 354 353 350 350 357 358 355 352 349 351 352 351 350 348 345 339 336 334 333 333 333 334 336 336 337 337 337 336 333 332 329 324 318 312 312 313 314 314 316 316 317 321 325 328 329 330 329 329 330 330 331 332 332 332 333 333 334 334 334 334 334 334 334 333 332 331 329 330 329 326
313 313 312 316 318 319 323 323 327 326 323 322 324 325 324 324 324 323 322 327 337 342 342 341 342 342 346 348 347 349 351 350 351 352 350 349 352 350 350 349 347 345 339 334 333 333 333 333 334 335 336 337 337 337 336 334 332 331 326 319 313 311 312 313 314 315 316 317 319 323 326 329 329 328 328 328 328 330 331 331 331 332 332 333 334 334 334 333 333 332 332 331 331 330 330 326 323
312 313 312 316 320 321 322 324 330 327 321 322 322 323 322 321 323 321 322 335 344 343 345 343 344 345 346 348 348 351 351 349 349 350 349 350 351 349 348 346 344 343 339 334 333 332 332 333 333 334 335 336 337 336 336 333 332 332 328 322 314 311 312 313 313 314 315 316 317 320 324 326 327 326 325 324 325 326 328 329 329 330 330 331 332 333 333 332 329 326 327 329 329 328 324 319 322
312 312 314 317 321 322 324 325 330 329 323 322 321 321 321 321 321 320 326 341 345 342 344 342 344 345 346 349 349 350 350 350 350 349 348 349 349 348 347 345 344 342 338 334 332 332 331 332 332 333 335 336 336 336 335 334 333 332 329 324 316 311 312 313 313 314 314 315 316 318 321 323 324 323 322 321 321 322 323 324 325 326 326 326 328 328 327 324 318 316 319 321 321 317 314 318 325
311 313 318 320 322 323 323 323 326 326 323 323 321 321 322 320 321 320 329 341 342 343 342 342 345 345 347 349 348 349 350 350 349 349 349 348 349 349 348 346 345 342 337 333 332 331 331 331 331 332 333 335 336 335 335 334 333 333 330 325 318 312 312 313 313 313 313 315 316 317 319 321 322 322 321 319 319 319 320 320 321 321 321 321 321 320 318 314 310 310 311 312 311 309 314 324 328
311 313 319 319 321 321 321 321 321 321 321 322 321 322 321 319 320 321 333 342 342 344 341 343 346 346 348 349 348 349 350 350 350 349 349 348 349 350 349 347 345 341 336 333 332 331 331 330 330 331 332 334 335 335 335 334 333 332 329 325 319 312 311 313 313 313 313 315 316 316 317 319 319 319 319 319 318 317 317 317 317 316 316 315 314 313 311 309 308 308 308 308 307 312 321 327 328
312 315 319 319 321 319 320 321 320 320 320 320 320 321 320 319 319 320 337 344 343 344 342 345 345 349 350 349 350 351 351 350 350 349 349 348 349 349 348 345 342 339 334 332 332 331 330 330 330 330 332 334 334 335 334 334 333 331 329 324 320 313 311 313 313 314 314 314 315 315 316 317 317 317 319 318 317 316 316 315 314 312 311 310 310 309 308 308 308 308 308 307 309 315 323 327 329
314 319 319 320 323 318 319 320 317 319 319 319 319 319 320 320 319 319 333 341 344 343 343 346 345 350 351 350 351 351 350 350 349 348 348 349 349 348 343 340 338 336 334 333 332 331 330 329 328 328 330 332 333 334 334 334 332 331 328 323 319 314 310 312 313 314 314 314 314 314 314 315 316 316 318 317 316 315 315 314 312 311 309 309 309 309 308 308 308 308 308 308 309 315 323 327 329
316 320 319 320 323 320 319 318 316 317 317 318 317 318 319 319 321 320 324 336 343 343 345 347 343 351 351 350 350 350 350 349 349 349 349 349 348 344 341 339 338 335 334 334 333 332 330 327 325 325 325 327 330 332 332 332 330 329 326 321 319 313 310 311 312 314 314 314 314 314 314 315 315 316 317 317 316 315 314 313 312 311 309 309 309 309 309 308 308 308 308 308 310 315 322 327 329
318 319 320 320 320 320 320 319 318 318 317 317 317 317 318 318 319 319 322 336 344 346 346 346 345 350 350 350 350 350 349 349 348 349 349 347 345 343 342 342 341 339 336 334 333 331 327 323 321 321 321 323 326 328 329 329 328 326 322 319 318 312 309 311 312 313 314 314 314 314 314 314 314 315 317 317 316 314 313 312 311 310 310 310 309 309 309 308 309 308 308 309 312 317 324 329 330
319 318 318 317 318 318 319 319 318 318 317 317 317 317 319 319 318 320 329 341 345 347 347 346 348 349 349 349 349 349 349 349 348 348 347 345 344 344 344 344 343 342 339 335 333 329 323 319 318 319 320 322 324 325 325 324 322 320 319 318 315 310 310 310 311 312 314 314 314 314 314 313 314 314 316 316 315 314 313 311 310 310 310 310 309 309 309 309 309 309 308 310 315 321 328 331 331
320 318 317 317 318 317 317 317 316 317 317 317 318 318 320 319 319 321 335 345 345 346 347 345 348 349 349 349 348 348 349 349 348 346 345 346 346 346 345 344 344 343 340 336 332 325 319 317 318 319 319 320 320 320 319 318 318 318 318 316 312 310 310 310 311 312 313 314 314 314 314 314 314 314 315 315 315 315 313 311 311 311 310 310 310 309 309 309 309 309 308 310 318 325 329 331 331
319 317 316 318 319 318 316 315 316 318 317 317 317 318 320 319 321 320 331 343 344 346 347 344 347 348 349 349 348 348 349 349 348 346 346 346 346 346 345 345 345 342 339 335 330 322 317 316 316 316 316 317 317 317 316 317 317 318 315 312 310 310 310 310 311 311 312 313 314 314 314 314 314 314 315 314 315 315 314 313 312 312 311 310 310 310 309 309 309 309 308 311 320 327 330 331 332
318 317 317 319 318 317 317 316 316 317 317 317 317 318 320 320 322 323 332 342 344 347 347 344 345 348 349 349 348 348 349 349 348 347 346 347 346 346 345 345 346 341 335 332 325 320 317 316 316 315 316 316 316 316 316 317 317 315 313 312 311 310 310 310 311 311 312 313 313 314 314 314 314 314 314 315 314 315 315 314 314 313 312 311 310 310 310 310 309 309 309 310 319 328 330 331 332
317 316 317 318 317 316 316 317 316 316 317 317 318 319 320 322 327 333 340 346 347 347 346 343 340 346 349 348 347 347 348 348 347 347 346 347 347 346 345 345 346 340 333 329 323 320 318 317 317 317 317 316 316 315 315 315 315 314 313 313 312 311 311 311 311 312 312 313 313 313 314 314 313 313 314 314 315 315 315 315 315 314 313 312 311 311 310 310 310 309 309 310 318 327 330 331 332
318 315 316 317 316 315 315 317 317 317 318 318 319 319 324 332 336 341 343 343 348 346 344 344 340 345 349 348 347 347 348 347 347 347 347 347 347 346 345 345 345 340 333 328 324 322 320 320 320 318 318 316 316 315 314 315 315 315 314 314 313 313 312 312 312 312 312 313 313 313 313 313 313 313 313 314 314 314 315 316 317 316 315 314 312 311 311 310 309 310 309 310 316 324 329 331 331
318 314 315 316 315 315 317 318 318 318 319 319 319 319 330 339 342 345 344 343 348 346 345 346 344 347 348 348 348 347 348 347 347 347 347 347 346 345 345 344 343 339 333 329 326 324 323 322 321 320 319 317 316 315 314 314 315 315 315 315 314 314 313 313 312 312 313 313 313 313 313 313 313 312 313 314 314 314 315 316 317 318 316 316 315 313 312 311 310 309 310 309 314 321 327 329 331
317 317 315 314 315 316 317 319 318 318 319 320 320 320 330 340 344 344 346 347 348 347 347 348 348 349 348 348 348 347 348 347 348 348 346 346 345 344 344 343 341 337 333 329 326 324 324 323 322 322 320 319 318 317 316 315 314 314 314 314 314 314 313 313 313 313 313 313 312 313 313 314 315 315 314 313 313 313 314 316 317 318 318 317 317 316 314 312 311 310 310 309 312 318 324 328 330
316 319 317 315 316 316 316 317 317 317 318 319 320 320 327 338 342 343 348 349 349 349 349 349 350 349 348 348 348 348 348 348 348 348 346 344 343 343 343 341 339 337 334 330 326 323 324 325 323 322 322 321 321 320 320 318 317 316 315 315 315 314 314 314 315 314 314 315 316 317 319 322 324 324 321 318 316 315 314 314 315 316 318 318 318 319 317 315 313 311 309 309 310 314 320 326 329
315 317 316 316 317 316 317 317 316 317 317 318 319 322 326 333 338 343 348 349 349 349 349 350 349 350 349 348 348 348 347 348 348 347 345 343 343 343 343 340 337 336 334 331 328 326 326 326 325 324 324 324 324 324 324 324 324 323 322 321 320 319 319 320 319 319 319 321 324 326 328 330 330 330 329 326 324 324 321 317 315 315 316 318 319 319 319 318 316 314 310 309 310 312 317 324 327
314 315 316 316 316 316 318 317 318 318 318 318 318 321 323 326 337 344 347 350 350 349 349 350 350 350 349 349 348 347 347 347 347 345 344 343 343 343 342 340 338 337 336 334 333 331 329 329 329 328 328 328 327 327 327 328 329 328 328 328 327 326 327 326 326 326 327 329 330 331 332 331 329 329 330 330 330 332 330 325 321 317 315 315 318 319 319 319 319 316 312 308 308 311 317 322 325
315 315 315 315 316 317 318 317 319 318 318 320 319 320 320 324 337 342 343 348 349 349 349 350 349 349 349 349 348 346 346 345 345 344 344 343 343 343 342 339 338 338 337 336 337 336 334 335 336 334 334 333 332 329 329 329 330 330 330 331 330 330 330 330 330 330 330 331 332 333 331 330 330 330 331 331 332 333 333 332 329 324 319 315 315 317 319 320 320 318 315 312 311 313 316 319 325
315 315 315 315 316 316 317 318 319 319 319 320 320 319 319 327 335 337 340 345 348 350 349 349 348 348 348 349 348 347 345 343 343 343 343 343 342 342 341 340 339 340 340 339 339 339 339 339 339 338 338 338 337 335 333 330 328 330 331 331 331 330 330 331 331 331 332 331 333 334 332 332 332 332 332 332 332 333 333 333 332 330 326 319 315 316 318 320 321 319 319 321 322 322 321 323 327
314 315 315 316 316 316 317 318 319 320 320 319 321 319 321 333 339 339 344 347 349 349 348 348 348 348 349 348 347 345 343 342 342 342 343 343 342 342 342 341 340 340 341 341 341 341 340 340 340 340 340 339 339 338 337 333 330 333 334 334 333 332 332 332 331 331 333 333 333 334 333 334 334 333 333 332 332 332 332 332 332 332 331 326 318 316 317 319 321 320 322 328 331 331 330 330 330
314 314 315 316 317 317 317 319 319 321 320 320 321 318 325 337 341 344 348 348 349 348 346 347 347 348 347 346 344 343 343 342 343 343 342 343 342 342 342 341 341 340 341 341 341 341 341 340 340 340 339 339 338 338 338 337 335 336 337 336 336 335 335 334 331 332 334 334 334 334 334 334 334 334 334 333 332 331 332 332 332 332 333 330 323 317 316 318 320 321 324 328 332 334 333 333 332
315 315 315 316 317 317 317 319 320 320 320 320 319 319 329 340 341 344 348 347 347 347 346 347 347 346 345 344 343 342 342 342 342 342 341 342 342 342 342 342 341 341 341 341 341 341 341 341 340 339 338 338 338 338 338 338 336 336 336 337 336 336 336 334 333 334 335 335 335 335 334 334 334 334 333 332 332 331 331 331 332 332 333 332 326 321 317 317 320 321 322 326 331 334 333 332 332
315 315 315 315 316 317 317 319 319 320 320 320 319 318 327 336 338 341 346 347 346 346 346 347 346 344 343 343 343 342 342 342 342 341 341 341 341 342 342 341 341 341 341 341 340 340 341 340 341 339 338 337 337 338 337 337 336 335 335 336 335 336 336 335 335 335 335 335 335 334 334 334 333 333 333 332 331 331 331 331 331 332 333 333 330 326 321 320 324 324 322 322 328 333 333 332 332
315 315 315 315 316 315 316 319 319 319 319 319 319 318 320 328 335 339 345 347 346 346 346 345 345 343 343 343 342 343 342 342 341 340 339 339 340 340 341 341 341 341 341 340 340 340 340 340 339 338 338 337 337 337 337 336 335 335 334 334 334 334 335 335 334 333 332 332 333 333 333 332 332 332 332 332 330 330 330 330 331 331 332 333 332 331 327 324 326 328 325 323 325 328 332 333 332
314 315 315 317 317 315 317 317 319 319 319 319 318 318 319 323 333 338 343 346 346 346 345 345 345 344 344 343 342 343 342 341 340 338 338 338 339 339 339 340 341 341 340 340 339 338 338 338 338 337 337 337 337 337 336 335 334 334 334 334 334 334 333 333 331 331 331 331 332 332 333 332 331 330 330 330 329 329 329 330 330 331 331 332 332 332 331 328 327 328 327 326 325 325 330 333 332
315 315 314 317 316 316 317 316 319 319 318 320 316 319 323 324 331 336 340 345 346 345 346 345 345 344 343 343 342 342 340 339 338 337 337 338 339 339 339 340 340 340 339 339 338 338 337 337 337 337 337 337 337 337 335 334 333 333 333 333 333 332 331 331 331 332 332 333 333 333 333 332 331 330 330 329 329 329 329 329 329 330 331 331 331 331 331 331 329 328 328 328 328 328 330 332 333
314 315 315 318 317 319 319 315 318 319 318 320 316 319 323 324 329 334 339 344 346 344 345 344 344 344 343 343 341 340 339 338 337 337 338 338 339 339 339 339 339 339 338 338 338 337 337 337 337 337 337 337 336 335 333 333 333 331 332 333 333 332 332 332 333 333 334 333 333 333 334 333 333 331 330 330 330 330 330 329 327 328 330 331 331 331 331 331 331 330 330 329 329 329 329 331 332
315 314 317 317 316 321 322 315 316 317 318 317 316 320 320 323 330 338 341 343 345 344 345 344 343 343 342 342 341 340 339 338 337 337 337 338 338 339 339 339 339 339 338 338 338 338 337 336 336 335 336 336 335 334 334 334 332 330 331 333 332 333 333 334 334 333 333 332 330 330 332 333 334 333 332 331 330 330 330 329 328 327 329 331 332 332 331 331 331 331 331 331 330 330 329 329 331
320 318 320 318 315 318 319 316 315 315 317 316 316 319 316 321 331 339 342 343 345 344 344 343 343 343 342 342 341 341 340 339 338 337 338 338 338 338 338 338 339 339 339 338 337 337 336 336 336 335 335 335 334 334 335 336 333 331 332 333 332 333 334 334 333 332 332 331 328 328 330 332 333 333 333 333 332 331 331 330 329 328 329 330 332 332 331 331 331 331 331 331 331 331 330 328 328
320 319 321 319 316 316 316 317 316 313 317 317 316 320 322 328 336 340 343 343 344 344 343 343 342 342 342 342 342 342 342 342 341 341 340 340 339 338 338 338 338 338 338 337 336 336 335 336 336 336 336 335 334 335 336 336 335 333 333 334 334 333 333 333 331 328 329 331 329 328 330 332 332 332 333 333 333 333 332 331 330 329 328 329 330 331 331 331 331 331 331 331 331 331 331 328 326
318 318 318 317 316 315 315 317 316 315 318 316 318 327 330 335 339 340 342 343 343 343 343 342 342 342 341 341 341 342 342 342 342 343 341 341 341 339 338 339 338 338 338 337 337 337 336 336 337 337 337 336 335 335 335 335 335 334 334 334 334 334 334 333 332 331 331 332 331 329 329 331 331 332 333 333 333 333 333 332 331 330 329 328 328 329 331 331 330 330 330 329 330 330 330 329 326
318 318 317 317 315 314 316 316 316 317 317 317 325 333 336 338 338 339 341 342 342 342 342 342 342 340 339 339 340 340 341 340 341 342 341 342 341 340 338 339 339 339 339 339 338 338 339 338 338 338 338 338 337 336 336 336 336 335 334 333 333 334 334 334 334 334 333 332 332 331 331 331 332 332 332 332 332 332 332 333 332 331 330 329 328 328 329 330 330 330 329 328 328 328 329 329 326
315 315 315 315 314 315 315 315 317 315 319 326 333 338 338 339 339 339 340 340 341 341 341 341 340 338 337 336 337 337 337 338 340 340 340 341 341 341 339 339 339 339 340 339 339 339 339 339 339 339 339 339 338 337 336 337 337 336 335 333 332 333 333 334 335 334 333 333 334 333 331 331 331 332 333 333 333 333 332 332 332 331 331 330 329 329 329 330 330 330 330 329 328 328 329 330 328
313 313 314 314 314 314 314 316 316 315 326 334 337 340 339 340 340 339 340 340 340 340 339 339 337 336 336 334 334 335 334 336 339 340 339 340 341 340 340 339 339 339 340 339 338 339 338 339 339 339 339 339 339 338 337 337 338 337 336 335 333 333 333 333 334 334 334 334 335 333 332 331 332 333 334 333 333 333 332 332 332 332 332 332 330 330 330 330 330 330 330 330 329 329 329 330 330
313 313 314 314 314 313 314 316 314 320 335 339 338 340 339 337 337 336 337 336 336 336 336 336 335 334 334 333 333 333 333 336 338 339 339 339 340 340 339 340 339 339 339 339 338 338 337 338 339 338 337 337 337 337 337 337 337 337 337 336 335 334 334 333 333 334 334 334 334 333 332 332 332 333 334 334 333 333 333 333 333 333 332 332 332 331 330 330 330 330 330 330 330 330 329 329 330
314 315 314 314 314 313 315 316 317 325 337 339 336 339 337 335 334 333 333 333 332 332 332 332 332 332 332 332 332 332 333 335 336 338 339 337 338 340 339 339 339 339 339 339 340 339 338 338 338 337 337 336 337 336 336 337 337 337 337 337 336 334 333 332 332 332 332 332 332 332 331 332 333 333 333 333 333 334 333 333 333 333 333 333 333 332 332 331 331 331 330 330 331 331 330 329 329
314 315 314 313 314 314 314 317 326 332 336 335 335 338 337 335 336 334 332 332 331 330 331 330 330 330 331 331 331 332 333 334 334 335 336 336 337 338 337 337 337 337 338 338 338 338 338 338 337 336 335 336 337 336 336 336 336 336 336 336 336 335 334 333 332 332 332 332 332 333 333 332 333 333 332 332 333 334 333 333 333 334 334 334 333 333 332 332 332 332 331 331 331 331 331 330 329
314 315 315 314 315 316 314 316 330 336 336 335 335 339 338 335 336 336 332 331 331 331 330 329 329 329 330 330 329 331 332 332 332 332 334 334 335 335 335 336 336 336 336 336 335 335 335 336 336 334 334 336 337 335 336 336 335 336 335 335 336 336 337 336 335 334 334 333 334 334 334 334 333 332 332 331 332 332 332 332 332 333 334 334 334 333 333 333 332 332 332 331 331 331 330 330 330
313 315 316 315 314 317 315 315 328 336 336 334 329 336 339 336 336 334 331 331 330 330 329 329 329 328 328 328 328 329 329 329 330 331 332 332 332 332 333 334 334 334 334 335 334 334 334 334 334 334 333 335 335 334 335 335 335 335 335 335 335 336 336 336 336 335 334 334 334 334 334 334 334 333 332 331 331 332 332 332 333 333 334 334 334 333 333 332 331 331 331 331 331 330 330 330 330
313 315 316 317 316 317 316 315 323 329 330 331 328 331 337 338 336 332 330 331 330 328 328 328 328 327 327 327 327 328 328 327 328 328 329 330 331 331 331 331 332 332 332 332 332 333 333 333 333 333 333 333 333 333 333 333 334 335 334 334 334 335 335 335 335 335 334 334 334 334 334 334 334 333 332 331 331 332 331 332 332 333 334 334 333 332 331 331 330 330 330 331 332 331 331 331 331
313 315 316 317 316 317 318 315 319 325 327 330 330 330 334 335 333 331 330 331 331 329 327 327 328 327 326 327 326 326 327 326 326 326 326 327 328 328 327 327 328 328 328 329 330 331 332 331 331 332 332 332 332 333 333 333 333 334 333 333 334 334 334 334 334 334 334 334 334 333 333 333 333 333 331 331 332 331 331 332 332 332 333 333 332 332 331 330 330 331 331 331 331 331 331 331 331
314 315 316 317 317 318 318 317 320 325 327 329 328 329 334 333 332 331 330 331 331 329 327 326 327 327 326 326 325 325 325 324 324 324 324 324 325 325 324 324 324 325 325 326 328 328 327 327 327 327 328 328 330 331 331 331 331 331 332 331 331 332 332 333 333 333 334 334 333 333 332 332 332 332 331 331 332 332 331 332 332 332 333 332 332 332 332 331 331 331 331 331 331 330 331 331 330
314 316 315 314 320 321 319 323 327 327 328 328 327 327 331 333 333 332 329 330 329 327 326 325 325 326 325 325 324 324 323 323 323 323 322 322 323 323 323 323 323 323 323 324 325 324 323 323 323 323 323 324 325 326 326 327 327 328 329 329 328 329 330 330 332 332 333 333 333 333 332 331 331 331 331 331 331 331 331 331 332 332 332 332 332 332 332 331 331 331 330 330 330 331 330 330 330
313 316 315 315 322 321 316 319 323 326 328 327 326 324 322 330 333 331 330 329 326 325 326 325 324 325 324 324 323 323 323 322 322 322 321 321 322 322 323 323 322 322 322 322 322 321 321 321 321 321 321 321 321 321 322 322 323 323 324 324 324 325 325 325 326 327 328 329 329 330 330 330 330 330 330 330 330 330 330 331 331 331 332 332 332 331 331 331 330 330 329 330 330 329 329 329 329
312 315 315 316 318 316 314 317 320 326 328 324 324 322 321 332 332 329 330 328 325 325 325 324 324 324 324 323 322 322 322 322 321 321 321 321 321 321 322 322 322 321 320 320 320 320 320 320 320 320 319 319 320 320 320 320 320 320 320 321 321 321 321 321 321 322 322 323 323 324 325 326 327 328 329 330 330 330 330 330 331 331 331 331 331 331 331 331 330 329 329 330 330 328 328 328 328
312 315 317 317 317 314 315 318 320 323 323 320 322 321 327 336 332 327 328 326 323 324 324 324 324 323 323 322 321 321 321 321 321 320 320 320 320 320 320 320 320 319 319 319 319 319 319 319 319 319 318 319 319 319 319 319 319 319 319 319 319 318 319 319 319 319 319 319 320 321 323 324 325 326 327 328 329 329 330 330 330 330 331 331 331 331 330 330 330 329 329 329 329 328 328 327 327
312 314 319 319 320 320 317 319 321 319 319 323 326 326 332 337 330 325 325 323 323 324 324 324 323 322 322 320 320 320 319 320 320 320 320 319 319 319 319 319 318 318 318 318 318 318 318 318 318 318 318 317 317 317 318 318 318 318 318 318 318 317 317 317 317 317 316 317 317 319 321 322 323 324 325 326 326 328 329 329 329 330 330 330 330 330 330 329 329 329 329 329 329 328 328 327 327
314 314 318 316 321 325 321 324 329 325 325 332 333 331 330 330 326 323 323 322 323 323 321 321 320 320 320 319 319 319 319 319 319 319 319 318 318 318 318 318 317 318 318 317 317 317 317 317 317 317 317 317 317 317 317 317 317 317 316 317 317 316 316 315 315 315 315 315 315 316 317 319 320 321 322 323 324 325 326 327 328 329 329 330 330 330 329 328 328 329 329 329 329 328 328 328 327
318 314 316 315 317 324 321 319 323 324 327 330 330 332 329 327 327 324 323 323 321 319 318 318 318 318 318 318 318 318 318 318 318 318 318 317 317 317 317 317 317 317 317 316 317 316 316 316 316 316 316 316 316 316 316 316 316 315 315 315 315 315 314 314 314 314 314 314 314 315 315 315 316 317 319 320 321 321 323 324 326 327 328 329 329 329 329 328 327 328 328 328 328 328 328 328 328
320 313 316 316 314 321 327 323 317 320 329 329 328 333 331 329 330 325 323 322 320 318 317 317 317 317 317 318 318 318 318 318 318 318 318 317 317 317 317 317 316 316 316 316 316 315 315 315 315 315 315 315 315 315 315 315 314 314 314 314 314 313 313 313 313 313 313 313 314 314 315 315 315 315 315 316 316 317 318 320 322 324 326 327 327 328 328 328 328 327 327 327 327 328 328 328 328
318 315 316 316 316 319 323 323 318 320 330 330 329 332 330 330 329 326 324 322 320 318 317 317 317 316 317 317 318 318 318 318 318 317 317 317 317 316 316 316 316 316 315 315 315 315 315 315 315 315 314 314 314 313 313 313 313 313 313 313 313 312 312 312 312 312 312 312 313 314 314 314 314 314 314 315 315 315 316 316 318 320 322 324 325 326 327 327 327 327 327 326 326 326 327 327 327
316 316 314 316 322 323 318 319 319 322 328 331 332 332 332 331 327 325 324 321 319 319 317 317 317 316 317 317 317 318 317 317 317 316 317 316 316 315 315 315 314 314 314 314 315 315 315 314 314 314 313 313 312 312 312 312 312 312 312 312 311 311 311 311 311 311 311 311 312 312 312 312 313 313 313 314 314 315 315 315 315 315 317 318 320 322 324 324 325 326 326 326 326 325 326 326 327
316 316 316 315 317 318 318 319 319 322 331 333 332 333 334 332 327 324 323 321 319 318 317 317 317 317 317 317 317 317 317 317 316 316 316 315 314 314 313 312 311 311 312 312 313 314 314 313 313 313 312 312 311 311 310 310 310 310 310 310 310 310 309 309 309 309 309 309 310 310 310 311 311 312 312 312 312 313 313 314 314 314 314 315 316 317 319 321 322 323 324 325 325 325 325 326 327
318 319 320 317 316 316 318 319 318 323 332 332 331 333 332 328 327 324 322 319 318 317 317 316 316 317 317 317 317 317 317 316 315 315 315 314 313 311 311 310 309 309 310 311 312 313 313 313 312 312 311 310 310 310 309 309 309 309 309 309 309 309 308 308 307 307 307 307 308 308 308 309 310 310 311 311 311 311 312 312 313 313 314 314 314 315 316 317 319 320 321 322 323 324 325 326 326
Wind_Speed
5 6 6 4 5 2 1 1 0 2 2 1 3 2 5 6 4 6 7 6 1 4 6 10 8 13 14 14 17 19 17 5 4 4 6 12 22 23 18 20 19 19 22 24 23 21 21 20 19 19 19 19 18 17 15 14 13 12 12 12 12 12 13 14 14 14 14 14 15 15 15 15 16 16 17 17 17 16 15 15 14 13 13 12 12 12 11 12 11 12 12 13 14 15 16 16 17
5 6 5 5 4 1 0 2 1 1 2 2 4 4 5 3 3 8 11 3 7 8 20 28 24 24 25 23 20 21 21 13 15 20 21 22 26 22 18 20 18 18 21 23 23 22 22 21 20 19 19 19 18 17 15 14 13 11 11 11 12 12 12 13 13 14 14 14 14 14 15 15 15 15 16 16 16 15 14 14 13 12 12 11 11 11 10 10 10 10 10 11 12 12 12 13 15
6 6 7 6 2 2 1 2 1 1 3 3 5 4 3 4 7 12 8 9 18 20 23 24 19 16 15 13 13 13 13 19 29 33 30 26 26 22 19 19 18 18 20 22 22 22 22 21 20 20 20 19 18 17 16 14 12 11 11 11 11 12 12 12 13 13 13 14 13 13 14 14 13 14 14 15 14 14 13 12 12 11 11 10 10 10 9 8 8 8 8 8 10 10 11 13 16
6 6 6 6 1 2 2 2 2 4 3 4 5 5 3 5 10 12 4 20 21 20 18 14 10 12 16 14 12 15 15 19 27 32 30 25 25 23 19 17 16 17 20 22 22 22 22 22 21 20 20 19 19 17 16 14 13 11 10 10 11 12 12 12 12 13 13 13 13 13 13 13 12 12 13 13 13 13 12 11 10 10 9 9 9 8 7 7 7 8 8 8 9 11 14 17 19
5 4 4 3 1 1 2 0 2 4 4 5 3 4 6 5 6 9 7 22 19 19 16 12 8 11 19 14 7 10 16 20 21 28 30 25 22 19 16 14 13 16 21 22 22 22 22 22 21 21 21 20 19 18 16 15 13 11 10 10 10 12 13 12 12 12 13 13 13 13 13 12 12 11 11 11 12 11 10 10 9 9 8 8 7 7 7 7 8 10 10 10 12 15 19 21 20
5 4 4 3 1 1 1 1 2 4 6 5 3 5 6 6 8 7 9 16 15 19 19 17 14 14 16 16 15 12 16 20 22 26 28 26 21 16 13 9 10 16 22 23 22 21 21 22 22 22 21 20 19 17 17 15 13 11 10 10 10 13 14 13 12 12 12 13 13 12 12 12 11 11 10 10 10 10 9 9 9 9 8 8 8 8 9 9 10 11 12 12 14 19 22 22 19
5 4 3 2 2 1 2 3 5 5 6 5 3 7 7 10 14 6 6 12 13 15 22 23 25 21 10 10 16 15 16 19 26 27 24 25 21 15 10 7 14 21 24 22 21 21 21 21 22 22 21 20 18 18 17 15 14 12 11 10 10 13 14 14 13 12 12 12 13 13 12 11 11 11 10 9 9 9 8 8 9 9 9 8 9 9 10 11 11 12 12 13 16 20 22 21 19
5 3 2 1 1 0 2 3 5 5 4 3 5 10 11 17 18 7 5 6 7 11 21 24 29 22 9 13 14 16 19 18 27 26 22 23 19 14 10 13 20 25 24 22 21 20 21 21 21 21 21 20 19 18 17 16 14 13 12 11 11 13 14 14 13 12 12 12 12 13 12 11 10 10 9 9 9 9 8 8 8 9 9 9 9 9 10 11 12 12 12 14 17 19 20 21 20
5 3 1 2 0 1 2 4 5 4 4 5 6 13 18 23 21 11 6 6 10 13 14 16 27 20 11 23 21 23 27 23 27 23 19 18 15 15 15 17 21 24 24 22 21 20 20 20 20 20 20 20 20 19 18 17 15 14 13 11 11 13 14 14 14 12 12 11 11 12 12 12 10 9 9 8 8 9 8 8 8 8 9 9 9 9 10 12 12 12 11 13 16 18 20 21 20
4 3 2 1 1 2 4 4 4 4 5 6 8 15 23 25 22 15 5 10 14 16 15 20 28 24 19 21 20 27 31 27 25 20 16 12 12 16 18 17 17 21 22 21 20 19 19 19 20 20 20 21 20 20 18 17 15 14 13 12 12 13 15 14 14 13 12 11 10 11 12 12 11 9 8 8 8 9 9 8 8 8 9 10 10 9 10 11 12 11 10 12 16 19 22 21 18
2 3 3 1 1 3 5 4 4 6 7 6 10 19 27 28 24 10 12 13 17 21 22 28 25 25 25 16 19 26 29 27 22 20 16 11 13 16 17 16 15 16 20 22 21 19 20 20 21 20 21 20 19 18 17 16 15 14 13 13 13 14 15 14 14 13 12 11 10 10 11 12 11 10 8 8 8 8 9 9 9 8 8 9 10 10 10 10 11 10 9 12 17 21 22 21 18
1 2 2 2 2 4 4 3 5 7 8 6 8 18 27 27 20 6 16 15 20 20 17 21 20 27 20 10 20 23 27 26 19 18 16 15 15 15 15 16 14 13 19 22 21 21 21 22 22 21 20 18 18 17 16 15 14 14 13 13 13 13 14 14 13 13 12 11 10 9 9 10 10 10 9 7 7 7 8 8 9 8 8 9 10 11 11 10 10 10 9 13 19 22 21 20 17
4 1 4 2 3 3 3 4 6 6 7 6 9 19 24 18 13 6 15 18 17 11 11 25 31 29 15 12 22 22 26 24 18 17 16 17 16 15 15 15 14 14 20 22 21 21 22 22 21 20 19 17 17 15 15 14 14 14 14 13 12 13 13 13 13 12 11 11 10 9 8 8 8 8 8 8 6 6 7 7 7 8 8 8 9 10 11 11 10 9 9 13 20 21 20 19 17
7 4 4 1 1 1 3 4 4 4 6 8 12 16 15 13 10 9 21 14 5 9 16 32 37 28 18 16 20 22 25 23 19 17 18 17 15 16 15 14 15 17 20 20 20 21 21 21 21 20 19 18 17 16 15 14 14 14 13 12 12 12 12 12 12 12 11 10 9 9 7 7 6 6 7 8 7 6 6 6 6 7 8 8 8 9 10 11 10 9 9 12 19 20 20 19 17
9 6 3 1 2 3 3 4 4 4 6 8 16 14 5 3 8 17 28 17 9 19 24 28 26 18 18 16 17 26 26 23 20 19 19 17 16 16 15 16 16 18 20 18 19 20 20 20 20 19 18 17 16 16 15 15 14 13 13 12 11 11 11 12 12 11 11 9 9 8 8 7 6 6 6 7 7 7 6 7 6 6 6 7 7 7 8 10 10 9 9 11 17 20 20 19 17
11 8 2 1 3 2 3 4 3 4 6 7 19 14 4 11 20 20 25 30 18 18 16 11 10 13 24 25 28 32 27 23 20 19 19 17 17 15 14 17 18 20 20 18 18 18 18 18 18 17 16 16 15 15 15 14 14 12 12 11 11 11 11 11 11 11 10 10 9 9 9 8 7 7 7 8 8 8 7 7 7 6 6 6 7 7 7 8 9 9 9 11 15 19 19 19 17
10 6 2 2 3 3 4 4 3 4 7 7 13 6 7 12 23 23 27 36 26 20 17 13 17 28 34 32 35 33 27 24 20 20 20 19 18 14 15 18 20 22 21 18 17 17 17 16 15 15 15 15 14 14 14 13 13 12 11 11 11 11 11 11 11 11 11 11 11 10 10 8 7 7 7 7 7 8 7 7 7 6 6 6 6 7 7 7 7 9 9 10 14 18 19 19 17
6 3 4 4 3 4 4 5 5 4 6 8 9 2 12 12 19 26 26 28 32 30 28 30 32 34 35 35 35 30 26 23 20 21 19 19 17 16 17 19 22 22 22 20 17 17 16 15 15 14 14 14 14 14 13 13 12 11 11 11 11 11 11 12 11 12 12 12 11 11 10 7 6 5 5 5 4 4 6 7 6 6 6 6 6 6 7 7 7 8 9 10 13 17 18 18 18
6 3 2 5 4 4 4 6 9 7 10 12 11 4 10 16 17 25 21 18 31 27 24 36 38 35 36 36 32 27 25 21 19 19 16 17 17 18 18 19 22 22 22 21 18 17 15 15 14 14 14 14 14 13 12 12 11 11 11 11 11 12 12 12 11 11 12 12 11 11 9 7 4 3 2 2 1 2 3 5 7 7 7 6 6 6 6 7 7 6 8 9 12 15 17 18 18
7 6 2 5 5 4 10 14 14 16 16 12 11 6 6 15 18 25 20 16 24 21 21 31 33 36 36 33 31 27 23 19 19 18 16 16 17 18 18 19 20 21 22 20 19 18 16 15 14 14 14 13 13 13 12 12 11 11 11 11 11 11 11 11 10 10 10 11 10 9 8 6 4 3 2 1 2 4 4 4 6 8 8 8 7 7 7 7 7 6 7 8 10 13 16 18 17
5 7 4 5 3 4 15 18 18 27 18 7 10 7 4 7 21 28 24 15 12 17 31 37 36 39 38 33 29 25 23 21 21 20 18 17 16 17 17 18 18 20 22 20 19 18 17 15 15 14 13 13 13 12 12 11 11 11 11 11 11 10 9 8 9 8 8 7 7 7 6 5 4 3 3 2 3 4 5 4 3 5 7 9 9 8 8 7 7 7 7 8 10 11 14 15 12
4 4 6 8 6 4 16 20 23 31 17 5 10 9 9 2 20 28 25 14 8 17 34 44 44 41 38 34 29 27 24 22 22 21 19 16 15 16 17 18 19 20 20 19 18 17 17 16 14 14 13 12 12 12 11 11 11 9 9 9 9 9 7 7 7 5 4 5 6 7 6 4 3 3 3 4 4 4 5 5 5 4 5 8 10 10 9 9 8 8 8 9 11 12 14 13 9
5 5 7 12 13 9 15 21 22 24 12 7 8 12 13 6 12 15 20 19 19 28 38 44 43 40 37 34 31 27 24 22 22 20 18 16 14 15 17 18 20 21 20 19 18 16 16 15 14 13 13 12 11 11 10 10 10 8 8 9 8 8 7 6 5 4 5 6 8 8 6 4 4 4 4 3 3 5 6 7 7 6 5 7 9 11 10 9 9 10 10 10 11 12 12 11 8
7 6 8 12 16 15 17 22 18 16 12 9 10 15 13 9 11 14 24 27 33 36 40 42 38 36 35 33 31 27 26 24 22 19 17 15 13 15 17 18 20 20 20 19 17 16 15 14 13 13 13 12 11 11 10 9 9 8 9 8 8 8 7 6 5 5 7 8 7 7 4 3 4 5 6 6 6 6 6 7 8 8 7 7 9 11 12 11 11 11 11 11 10 10 11 10 9
6 7 11 11 13 16 17 20 14 14 14 12 11 11 10 14 22 25 28 32 39 40 40 39 35 34 33 33 32 29 28 25 22 20 17 15 15 16 17 18 20 20 19 18 16 16 14 14 13 12 12 12 11 10 10 9 8 8 8 8 7 7 6 7 7 7 8 7 6 6 5 5 6 7 8 8 8 7 7 7 8 9 8 8 9 10 12 13 12 13 13 11 10 10 10 10 9
6 10 14 10 13 14 12 14 9 10 12 10 8 8 14 24 30 22 26 36 39 40 39 36 35 35 34 33 31 28 28 25 23 20 18 17 16 17 18 19 20 19 19 17 16 16 14 15 14 12 11 12 11 10 10 9 8 8 8 7 7 6 6 7 7 7 7 6 6 6 6 6 6 8 9 9 9 9 7 7 7 9 9 9 9 9 12 14 14 14 15 13 11 11 11 10 9
8 10 14 13 17 12 6 12 10 7 9 8 5 6 11 20 22 11 23 38 38 39 38 37 38 37 35 32 29 27 26 23 21 20 20 18 17 17 19 20 20 20 19 16 15 15 15 15 15 12 11 11 10 9 9 9 8 8 7 7 7 6 6 6 6 5 5 5 6 6 7 7 8 8 9 10 10 9 8 7 7 8 9 9 10 10 10 13 14 14 15 15 14 13 12 11 9
15 13 13 13 18 10 5 10 9 6 4 5 7 4 6 7 12 15 26 35 40 42 39 39 39 36 34 31 29 27 25 23 20 19 19 18 17 17 18 19 20 19 18 15 14 14 15 15 14 13 11 10 10 9 9 9 9 8 7 6 6 6 5 6 5 4 4 5 5 6 7 8 9 9 9 10 9 9 9 8 8 8 9 10 10 10 11 12 13 14 15 15 16 16 14 13 11
16 12 7 8 9 6 6 9 7 7 4 4 6 1 4 1 13 27 32 34 40 44 41 39 37 35 34 31 30 28 25 24 21 19 19 18 17 17 18 17 17 18 17 15 14 14 14 14 14 13 12 11 10 9 9 10 9 7 6 6 6 5 5 5 5 4 4 4 5 5 6 7 8 9 9 9 9 9 9 9 9 8 8 9 11 11 12 12 13 13 13 14 15 16 16 14 13
11 7 5 4 4 4 6 7 8 8 4 6 5 1 6 1 11 18 24 33 39 39 36 36 35 33 32 31 30 28 26 24 21 21 19 19 19 17 17 16 16 18 17 16 15 15 14 14 13 13 13 11 10 10 10 10 8 7 6 6 6 5 5 5 5 4 3 3 4 5 5 6 7 8 9 8 8 9 10 11 10 9 9 10 11 11 13 14 14 14 13 14 16 17 17 15 16
6 3 2 2 2 4 6 5 9 7 6 8 8 2 6 4 13 12 18 29 36 32 29 33 34 33 32 31 30 27 25 23 21 21 19 19 19 18 18 18 17 17 16 15 14 14 14 13 13 13 13 12 11 10 10 9 8 7 6 6 6 6 6 5 4 4 3 3 4 4 4 5 6 7 8 9 9 8 9 11 11 11 10 11 11 11 13 14 15 15 15 16 18 18 18 17 17
1 2 3 1 4 4 8 2 9 7 4 9 10 2 5 7 16 22 24 26 31 30 27 30 32 33 34 32 30 27 24 23 22 21 20 18 17 17 17 17 16 15 15 14 13 12 12 12 12 12 13 12 11 10 9 8 7 6 6 6 6 6 5 4 4 5 5 5 5 6 5 6 7 8 9 9 10 9 9 10 11 12 12 13 13 13 14 15 16 16 17 18 19 19 19 18 19
2 2 3 2 4 3 5 5 8 11 5 6 8 3 2 7 22 33 31 29 30 30 27 29 31 32 33 32 30 28 25 24 22 21 20 19 19 18 16 15 15 13 12 12 13 12 11 11 11 11 12 11 10 9 8 7 6 6 6 7 6 5 5 6 6 6 6 7 8 8 8 7 8 9 9 10 10 10 11 10 11 12 13 15 15 16 15 15 16 17 18 19 19 19 19 19 20
4 0 3 3 4 3 2 5 6 8 6 3 4 4 5 9 20 28 31 33 31 29 28 29 31 32 31 31 29 28 26 24 22 21 19 19 19 19 18 16 15 14 13 12 12 11 11 11 10 10 10 10 9 7 7 7 7 7 7 7 6 5 6 7 8 7 8 9 9 9 9 9 10 10 10 11 11 11 12 12 12 13 14 15 16 17 17 17 18 19 19 18 19 20 20 21 22
3 3 3 2 2 3 5 5 3 5 6 4 5 8 10 11 11 15 22 30 30 28 28 28 30 31 29 29 29 28 27 24 22 22 20 19 19 18 18 17 15 15 15 13 12 12 11 10 10 9 8 8 8 7 6 7 8 7 7 8 8 7 7 8 9 9 10 10 10 10 11 11 12 12 12 12 12 13 13 14 13 13 14 15 16 18 18 18 19 19 19 18 19 21 21 21 22
6 5 4 4 3 3 5 5 4 6 5 5 8 9 11 10 8 11 15 24 31 29 27 27 27 27 26 28 30 29 27 24 22 21 20 19 18 17 17 17 16 15 15 14 13 12 11 11 10 9 8 7 7 8 7 7 8 8 8 9 9 8 8 9 10 11 11 10 11 11 12 13 14 13 13 12 13 13 14 15 15 14 15 16 17 18 19 19 19 20 19 19 20 21 21 21 22
4 3 3 5 5 5 5 5 6 6 6 5 10 10 10 10 8 11 16 21 25 25 23 23 23 24 25 27 29 29 27 26 23 19 18 18 18 17 16 16 15 14 14 13 13 13 12 11 10 9 9 7 6 8 9 8 7 7 9 9 9 8 8 9 9 10 10 10 10 12 13 14 14 14 14 14 14 15 15 15 16 16 16 17 18 18 19 20 21 21 21 20 20 21 21 21 22
4 3 3 4 4 5 5 5 6 6 8 3 11 14 9 10 10 11 15 15 16 17 18 20 22 23 23 25 26 27 26 26 26 22 19 19 20 18 15 15 14 13 13 12 12 12 11 11 11 10 11 10 8 8 8 8 7 7 8 9 9 9 8 8 8 8 9 9 9 11 12 13 14 14 14 14 15 15 15 15 16 16 16 18 19 19 19 21 22 22 23 23 22 21 22 23 23
4 3 3 5 3 2 4 5 3 8 8 4 12 16 9 9 9 9 9 9 13 16 17 19 21 21 21 22 23 23 24 26 27 24 20 20 22 20 16 14 14 14 13 11 11 10 9 9 9 9 9 9 9 9 9 9 9 9 8 8 8 9 8 8 8 8 9 9 9 10 11 12 13 14 13 14 15 16 16 16 16 16 16 17 18 19 20 21 22 23 24 24 24 23 24 25 24
4 4 4 4 3 3 3 5 2 8 7 8 14 13 7 7 8 9 10 11 16 19 21 21 20 19 18 19 21 21 22 24 24 23 20 17 19 19 15 13 13 14 14 13 12 10 9 9 9 8 7 7 7 7 8 9 10 10 9 7 6 7 8 9 10 10 9 9 8 8 9 11 13 14 14 14 16 17 17 17 17 17 17 17 18 19 19 20 21 22 24 25 26 26 25 25 25
4 6 7 5 4 5 4 1 7 10 7 13 16 9 2 3 6 6 8 11 14 17 21 21 19 19 19 19 19 19 19 20 20 21 19 15 15 16 15 12 10 9 10 10 9 7 7 7 8 8 7 5 6 6 6 7 9 10 10 8 6 5 6 8 9 10 9 8 8 8 8 10 11 13 14 15 17 18 18 18 18 18 18 18 19 19 19 20 20 21 23 24 26 27 26 26 27
5 7 10 8 5 5 5 3 9 8 3 8 11 7 2 1 5 6 6 8 9 12 16 16 17 18 19 18 17 18 18 17 17 17 16 14 13 14 14 12 10 9 10 9 7 6 7 8 8 9 8 5 6 7 6 7 8 9 10 9 8 7 6 5 6 8 9 9 8 8 9 10 12 13 14 15 17 18 18 19 20 20 19 20 21 20 20 21 22 22 22 24 26 26 26 28 29
5 6 8 8 7 6 7 5 8 6 6 9 6 6 3 3 5 6 7 8 8 10 12 13 15 15 15 14 15 18 17 16 17 15 13 12 10 10 11 10 9 8 9 10 8 8 9 8 8 9 10 8 6 7 8 9 9 9 9 8 8 8 8 6 4 5 7 8 9 9 9 9 11 13 14 15 17 18 19 20 22 22 21 21 21 21 21 21 22 22 22 24 25 25 25 28 29
6 5 6 7 7 8 10 7 9 5 7 8 4 5 5 3 6 7 7 8 8 8 9 11 13 14 15 14 14 17 17 16 17 16 15 13 9 8 9 9 8 7 7 8 8 7 7 8 9 8 10 11 11 11 12 12 11 10 9 9 7 7 7 7 6 4 4 5 5 7 8 8 10 12 13 15 18 19 20 21 23 23 22 21 21 22 22 21 22 22 22 23 24 26 27 28 29
7 5 6 7 7 8 10 7 7 4 6 6 2 5 5 2 6 8 7 8 8 8 8 10 14 17 17 16 15 17 18 17 17 17 16 14 11 10 9 9 7 6 5 4 4 4 6 7 9 9 10 12 12 13 13 13 12 11 11 11 10 8 7 6 6 6 7 7 5 5 6 7 8 10 11 12 14 17 20 21 23 23 22 20 20 22 22 21 22 23 23 24 24 26 27 27 28
7 5 5 3 3 5 7 5 6 4 6 8 9 8 5 2 6 9 9 9 10 9 6 9 15 19 20 20 19 20 20 18 18 17 16 14 13 11 9 8 7 6 5 3 1 3 4 3 4 5 6 7 8 11 13 13 13 12 12 13 12 12 11 10 9 8 8 10 10 9 8 7 7 10 12 12 12 13 15 18 19 20 20 20 20 20 21 22 22 23 24 25 26 27 27 27 28
6 3 4 2 2 4 2 1 5 5 5 7 12 10 6 4 7 10 8 7 13 13 7 9 14 19 21 21 21 21 20 19 18 17 16 14 13 10 9 8 7 6 5 3 2 3 4 4 3 3 3 2 1 2 5 6 8 9 11 12 13 14 15 16 16 15 14 14 15 14 13 11 8 9 13 15 15 14 13 14 15 16 17 17 18 18 19 21 22 22 23 23 25 27 27 27 29
6 3 4 3 3 5 2 3 3 5 5 5 8 7 4 5 6 9 7 5 13 15 11 12 14 18 21 21 20 20 19 19 18 17 16 14 12 10 8 5 4 4 5 6 7 7 7 6 4 6 8 7 7 7 5 3 2 1 2 5 7 9 11 12 13 15 17 17 17 17 16 14 12 10 10 13 16 16 15 14 15 16 16 16 16 17 18 19 21 22 22 22 24 25 25 25 27
6 4 4 4 1 3 2 1 1 4 5 5 8 5 2 3 3 6 7 8 11 11 12 17 19 21 22 21 20 19 19 17 16 15 14 12 10 9 7 4 3 5 8 9 8 7 6 6 6 7 9 9 8 8 7 6 6 6 5 3 2 3 4 4 6 8 11 12 12 12 13 13 12 11 10 11 13 13 13 14 14 15 16 16 17 18 19 19 20 21 22 23 24 24 23 23 24
6 5 5 5 3 3 3 2 1 2 3 1 4 6 3 2 2 1 6 11 13 16 19 21 22 23 22 22 21 19 17 15 14 13 12 12 12 11 10 8 8 9 9 8 7 6 6 7 7 8 9 9 8 7 6 5 5 6 5 4 4 4 5 5 5 5 6 8 9 9 10 11 11 10 10 11 12 12 12 13 13 13 14 15 14 15 17 18 19 20 21 22 22 23 23 23 23
6 5 6 5 5 5 3 3 2 3 2 4 3 3 2 1 2 3 8 16 19 22 22 21 22 22 23 23 21 19 16 14 13 12 12 12 11 10 9 8 9 9 9 9 8 6 6 7 8 9 10 9 8 7 6 6 6 5 4 3 4 5 6 7 7 6 5 6 6 8 11 12 13 13 13 13 14 14 14 14 15 15 15 15 14 13 15 16 17 19 20 21 21 22 23 23 23
5 4 6 4 6 5 2 4 5 5 3 3 3 1 1 2 3 5 11 17 19 21 20 21 21 22 24 23 20 18 16 15 14 13 13 12 10 9 9 11 11 10 10 10 8 6 6 8 9 10 10 9 8 8 7 7 6 5 4 3 4 5 6 7 8 8 8 7 6 6 8 10 12 14 16 17 18 18 18 18 18 18 18 18 18 18 18 18 18 18 20 21 22 22 22 23 23
2 3 4 5 6 7 4 3 3 4 5 1 1 3 3 3 3 5 10 12 13 15 17 20 21 22 24 23 21 19 17 16 15 14 14 14 14 14 13 13 13 12 11 10 9 9 11 12 11 11 10 9 9 8 7 6 6 5 4 4 4 5 6 8 9 9 10 9 6 5 5 5 8 11 13 16 17 18 19 20 22 23 23 22 22 23 22 21 20 20 20 21 22 21 22 23 24
5 4 6 4 3 3 4 3 0 3 3 1 1 4 6 4 2 5 10 11 11 11 13 17 19 21 22 21 20 19 18 17 15 13 13 14 16 16 14 14 13 12 11 10 10 12 14 14 12 11 10 10 10 8 7 7 7 6 5 5 5 6 8 9 9 10 9 9 8 7 6 5 5 6 8 10 12 13 14 16 19 22 24 24 25 25 24 24 24 23 23 23 23 22 23 24 24
5 6 5 3 3 1 1 3 2 2 2 1 2 4 6 4 5 10 13 13 14 12 12 13 15 18 20 20 20 19 18 17 15 14 14 15 16 15 15 14 12 10 9 10 10 12 13 13 12 12 11 11 11 9 8 8 7 7 7 7 7 8 9 9 10 11 10 10 10 10 10 9 8 7 7 7 8 9 9 11 15 18 20 21 22 24 25 26 25 25 25 25 26 25 25 26 25
2 4 1 1 4 4 3 3 4 4 3 2 3 4 4 3 7 14 15 14 15 14 11 10 13 18 20 20 19 19 18 17 16 16 17 17 17 14 13 11 9 9 9 9 10 12 14 13 12 12 12 12 12 11 10 10 9 8 7 8 8 8 9 10 12 13 13 13 14 13 13 12 11 11 10 9 8 7 6 8 11 14 15 16 17 19 21 23 24 24 24 26 28 28 28 28 27
2 3 1 0 2 2 2 2 2 5 5 3 4 4 4 2 6 13 15 13 13 14 11 11 16 21 20 19 19 18 17 17 17 18 17 16 15 13 12 11 10 11 11 11 11 13 14 13 12 12 13 13 13 13 13 13 12 11 10 11 11 10 11 12 14 16 16 16 16 15 15 14 13 13 13 13 12 10 8 8 10 12 13 14 15 16 18 20 21 23 23 24 27 28 28 28 28
6 4 4 4 3 3 3 2 2 3 5 4 5 4 4 2 3 8 12 11 11 15 16 15 18 21 20 19 19 17 17 18 19 18 16 14 14 14 13 13 13 14 14 14 15 15 15 13 12 12 14 15 15 15 16 16 15 14 14 13 12 12 13 14 15 17 18 17 17 16 14 13 14 14 14 14 14 13 11 10 10 11 13 14 15 16 18 19 21 23 24 24 26 26 27 27 28
Wind_Direction
266 271 277 281 293 276 143 133 332 334 95 160 256 261 255 235 275 294 285 290 309 337 74 113 125 115 109 105 103 77 49 57 136 116 125 137 152 162 162 162 161 161 163 157 152 149 151 153 152 152 149 145 141 136 134 131 122 112 105 111 115 115 115 113 111 108 106 103 106 108 107 105 102 102 102 102 102 100 97 95 95 94 93 92 91 89 88 88 88 88 91 94 93 91 96 101 101
245 253 253 258 311 355 124 78 107 310 77 284 260 219 258 301 305 262 263 255 137 128 97 99 98 100 108 106 94 72 52 64 105 106 111 135 149 154 156 156 154 157 162 157 151 150 150 151 152 151 148 146 144 140 138 136 127 117 108 111 118 121 121 119 116 113 110 108 109 110 109 107 105 103 103 104 104 103 100 98 98 99 98 98 96 92 91 92 94 92 95 101 100 97 100 107 112
241 247 243 247 304 8 349 61 126 145 134 236 257 240 281 318 263 264 252 147 135 128 103 95 87 86 101 84 60 75 81 89 105 109 114 137 139 135 144 146 145 152 159 158 153 150 150 150 152 150 149 147 146 144 142 139 131 123 113 113 123 128 128 125 122 119 116 113 111 112 112 111 109 106 104 105 104 104 102 101 101 102 101 102 101 98 96 95 96 96 104 113 112 110 112 119 122
246 255 240 238 267 25 55 80 162 141 165 223 260 257 251 245 251 282 170 140 137 127 111 98 74 56 79 80 68 82 98 104 110 115 119 132 128 125 133 134 142 152 158 159 155 151 150 150 151 150 149 149 148 148 145 142 136 130 122 119 129 137 136 131 128 126 123 118 115 115 115 115 113 108 106 105 104 104 105 106 106 105 104 105 106 104 101 93 94 100 113 120 117 119 124 127 125
245 247 219 203 129 18 84 165 160 153 201 204 247 257 246 239 255 299 121 137 136 122 115 105 89 68 74 70 58 89 110 109 113 120 121 123 120 121 123 128 144 156 161 158 155 152 151 150 151 151 150 151 151 149 147 145 142 138 133 130 138 145 144 138 134 131 129 125 121 118 118 119 117 113 109 105 103 103 105 106 105 106 106 107 109 108 103 97 98 102 112 115 116 124 128 127 123
233 226 215 210 230 293 108 230 227 222 228 197 235 264 273 302 293 310 90 114 116 113 108 99 102 94 73 61 64 94 123 113 117 122 121 121 119 119 120 134 154 160 160 156 157 155 153 153 152 153 152 152 150 149 148 149 148 146 147 145 146 151 150 144 138 134 133 132 128 123 120 121 121 118 113 108 104 101 102 102 102 103 102 102 100 100 100 102 105 108 114 115 121 129 130 127 122
215 206 212 236 261 242 140 215 231 240 243 204 225 274 290 291 283 286 96 95 95 102 105 107 106 94 72 84 72 84 123 126 122 123 124 125 121 117 120 150 155 155 156 155 158 157 155 154 152 152 151 150 149 149 151 154 154 155 159 157 154 156 155 149 143 139 137 135 132 128 124 124 123 121 119 114 108 103 100 99 100 100 99 97 93 93 99 106 110 113 116 116 125 133 131 127 123
207 194 134 107 306 357 162 231 239 229 244 222 233 266 269 268 281 280 188 130 117 109 109 114 104 86 60 97 81 86 116 125 122 125 128 125 120 113 124 149 151 151 152 153 153 153 151 150 151 150 150 150 151 154 156 158 161 164 166 164 161 160 158 153 147 142 139 136 134 133 130 128 125 123 124 120 113 108 104 103 101 100 99 96 94 94 100 108 113 117 118 117 127 135 131 125 121
215 215 113 103 140 287 246 257 254 237 253 265 259 262 267 271 281 270 208 129 127 111 114 124 103 97 89 90 88 101 111 117 122 126 128 128 124 118 130 141 144 146 146 148 148 148 147 148 150 150 151 153 155 158 161 164 168 170 169 169 167 162 159 155 150 147 142 140 137 134 133 133 131 129 128 125 120 116 115 113 107 104 104 101 100 100 104 110 116 120 118 118 128 135 130 124 122
229 229 211 123 124 261 260 263 256 266 266 258 258 261 270 270 268 256 172 119 124 103 102 107 99 108 107 90 96 111 116 122 125 127 130 132 126 125 131 131 133 139 144 146 145 147 147 148 149 151 153 155 159 161 164 168 171 171 171 172 168 162 159 158 155 151 148 146 143 136 135 136 138 138 138 132 125 123 124 122 117 114 111 109 108 107 107 111 118 121 118 121 130 135 131 127 127
248 232 218 120 135 242 247 263 269 276 276 274 263 258 263 259 258 239 122 119 123 118 114 100 93 105 102 94 106 117 125 130 134 133 134 131 128 134 134 128 128 137 148 149 146 148 148 149 149 151 153 155 159 161 166 169 170 170 171 171 166 161 159 160 157 154 154 153 150 143 138 137 141 145 145 141 132 130 129 129 128 125 119 114 114 113 111 114 119 121 118 125 133 136 132 131 131
219 254 145 123 205 218 230 253 277 278 283 284 259 262 263 253 251 211 123 132 130 133 133 113 117 112 98 102 115 126 135 138 143 135 133 137 142 143 135 132 130 136 149 150 149 151 149 149 149 150 152 155 159 162 167 167 166 165 166 167 162 161 159 159 156 155 158 157 157 152 144 140 142 143 142 143 139 136 135 136 136 133 127 121 120 119 119 119 121 120 117 130 138 138 136 135 134
209 233 112 143 211 202 257 265 276 290 293 269 259 273 261 231 221 197 122 135 140 137 133 129 130 114 105 124 121 132 137 142 146 133 135 141 150 149 140 138 135 137 147 151 151 151 149 148 147 148 152 155 159 162 164 161 161 160 159 160 158 160 158 157 156 155 157 160 162 158 151 145 143 142 140 142 143 145 143 143 143 140 135 130 127 123 124 126 127 124 116 135 145 143 141 140 138
213 207 136 236 238 219 277 275 286 307 290 271 285 275 229 195 198 156 116 115 101 109 126 132 126 109 119 128 119 130 136 148 149 139 142 144 154 157 153 142 138 141 147 154 152 150 148 147 147 149 153 156 159 158 157 157 157 158 156 156 156 157 154 153 155 157 159 160 161 159 156 153 152 150 147 145 148 159 158 155 152 148 143 139 138 131 130 132 134 132 122 138 151 150 146 144 143
226 217 138 223 297 313 253 246 288 300 284 275 288 277 199 142 135 121 117 111 76 118 131 134 125 112 142 146 132 139 144 153 147 142 149 153 160 165 163 142 140 147 150 156 152 151 149 149 151 151 155 154 156 154 154 155 155 158 155 155 155 154 151 150 155 158 159 159 160 161 165 170 168 163 161 158 157 169 174 169 164 160 156 150 151 144 137 138 139 141 133 141 155 157 152 149 148
240 230 111 206 250 277 229 248 252 245 271 266 271 267 27 59 98 101 120 123 110 125 130 136 139 136 149 144 141 148 151 150 143 148 156 160 163 168 164 145 147 151 153 157 153 153 150 151 152 150 152 150 152 152 152 155 155 158 156 156 155 153 151 151 156 159 160 159 163 167 175 182 177 170 172 175 172 175 183 183 176 171 169 166 165 161 152 145 144 148 144 145 158 163 159 156 154
248 231 181 244 235 234 238 248 221 237 277 278 269 227 99 71 90 90 112 118 109 104 92 93 114 129 140 140 143 149 149 149 147 153 158 160 164 166 159 149 152 154 155 157 155 155 151 152 151 150 150 149 151 150 151 154 156 159 157 157 155 154 153 156 159 159 162 162 167 173 180 185 184 179 172 178 182 176 181 192 191 182 177 175 177 176 172 160 153 156 153 151 159 166 166 163 162
236 200 195 229 221 223 209 219 253 290 292 292 293 164 117 105 99 99 101 98 96 92 89 98 105 118 133 137 141 144 145 148 148 153 158 161 167 165 155 152 155 157 157 157 158 157 153 153 153 152 151 150 151 148 151 154 157 156 154 155 154 155 156 161 162 161 165 164 169 173 178 178 175 180 166 166 182 180 180 190 202 204 194 184 185 189 189 180 169 165 162 158 160 168 172 171 170
205 171 197 221 213 237 241 261 281 298 294 302 310 296 124 127 120 110 106 97 99 93 94 105 106 114 126 132 137 139 140 144 147 150 154 162 170 166 157 154 158 160 157 157 157 156 157 157 156 156 153 152 150 149 153 154 155 152 150 153 154 158 160 165 168 168 166 163 167 170 173 168 152 165 177 176 232 257 208 187 198 209 212 203 195 197 203 197 185 176 170 166 163 170 177 178 177
209 199 225 237 234 279 282 278 282 288 285 296 314 306 133 142 135 117 118 116 108 113 121 117 116 122 127 131 135 137 140 143 145 143 148 163 169 167 163 159 161 159 156 156 155 157 160 161 161 160 157 154 152 154 158 158 159 157 155 158 163 167 168 174 175 172 168 166 170 173 176 175 175 192 205 270 292 281 262 211 197 203 212 215 210 206 213 210 196 186 177 171 165 167 174 177 177
209 192 197 228 254 305 278 280 290 291 283 294 331 2 39 137 137 129 125 115 110 133 136 132 131 132 131 134 138 141 143 141 139 140 147 162 167 168 167 162 163 156 154 158 158 160 163 166 168 164 162 158 157 162 164 167 169 166 164 167 173 175 178 183 178 173 172 173 177 183 189 194 208 211 207 230 246 262 270 266 236 216 217 218 220 216 215 216 202 187 178 166 158 158 164 168 168
252 235 223 226 252 275 275 285 293 290 290 341 352 10 341 53 134 140 134 123 143 144 136 134 134 134 134 137 142 142 139 136 138 144 147 154 162 164 165 163 163 155 155 161 162 165 167 170 171 166 165 160 162 169 172 177 175 170 171 175 179 182 187 186 181 179 189 196 196 202 204 207 215 219 229 234 241 262 278 284 280 262 239 224 222 223 219 214 201 182 171 161 152 154 161 162 156
248 273 255 236 242 245 269 280 286 292 312 1 347 342 338 70 118 139 128 122 136 137 133 132 132 134 137 140 143 141 138 136 139 144 146 150 154 157 164 166 164 159 160 163 164 167 165 163 163 161 162 161 162 169 176 182 179 176 177 182 185 190 196 197 195 198 216 217 210 212 211 212 222 244 262 269 270 272 275 276 278 278 263 234 222 223 223 215 205 186 173 170 164 164 169 170 160
230 255 257 240 239 238 259 269 275 299 328 346 335 343 357 79 96 99 107 116 127 130 129 128 130 135 140 140 139 140 138 136 138 138 140 144 149 156 166 170 167 165 165 164 166 168 162 157 157 155 158 163 163 165 172 181 184 186 185 188 191 196 203 207 210 214 225 226 221 223 230 244 255 275 289 297 294 283 271 267 272 279 275 253 229 220 221 216 208 196 183 180 178 180 181 182 179
224 233 247 246 244 241 258 263 263 288 310 333 333 3 38 97 106 106 111 121 127 128 127 126 131 136 138 136 136 139 137 135 134 134 137 141 148 155 165 171 171 171 169 166 168 171 166 164 162 156 159 164 167 167 168 176 184 187 187 188 193 202 209 210 216 227 233 233 237 244 255 270 274 284 291 293 292 288 271 259 265 272 274 265 244 224 219 216 209 203 198 191 186 191 191 190 192
216 217 235 240 246 247 254 245 224 265 293 322 329 47 83 104 102 105 123 127 129 127 126 130 134 133 132 132 135 138 135 132 133 134 137 143 149 154 161 169 172 173 173 170 169 171 171 170 171 169 165 165 171 171 168 174 176 177 181 186 195 205 210 209 216 231 241 245 253 255 262 272 275 277 278 280 284 286 273 259 263 265 266 263 253 236 222 218 214 210 208 205 202 201 200 199 198
263 248 246 241 247 250 226 229 210 228 276 301 295 96 119 122 106 111 137 132 130 126 129 136 134 129 129 131 133 134 132 132 134 136 137 142 149 153 159 167 172 172 172 171 166 169 171 172 177 178 172 169 171 169 166 168 165 168 174 181 188 194 205 209 213 231 245 254 259 261 270 276 277 276 273 276 280 283 278 272 268 262 259 255 254 246 228 223 221 215 214 211 211 213 210 206 207
278 271 265 254 253 256 197 228 227 206 234 265 254 129 131 140 122 145 148 139 134 131 132 135 132 129 131 132 132 131 130 131 134 136 136 140 147 151 157 163 167 168 169 167 159 162 168 171 177 177 173 169 166 162 158 158 157 162 168 170 176 183 197 205 213 232 239 246 255 263 273 275 276 277 276 278 280 282 282 283 280 271 263 252 250 247 236 233 228 221 219 216 215 220 220 215 217
277 252 250 267 271 272 213 221 215 188 178 218 241 339 9 29 139 149 151 143 135 132 131 130 128 128 130 130 130 128 128 130 133 133 133 137 143 146 148 151 157 159 161 160 155 157 161 166 172 171 167 164 160 154 152 156 159 161 163 167 175 185 195 200 215 230 233 239 252 265 271 273 273 275 278 279 281 283 282 283 284 282 277 259 249 246 241 238 233 230 232 232 227 226 226 222 221
292 239 197 251 326 318 229 205 180 174 203 202 169 283 296 55 114 131 141 138 129 126 126 125 124 124 126 126 125 126 128 131 131 130 132 137 140 141 140 142 147 152 155 155 154 154 154 157 163 165 161 157 154 149 152 160 162 162 163 168 177 188 197 208 223 230 238 243 255 270 274 277 277 278 282 282 283 286 283 283 282 281 278 264 254 252 249 243 238 237 240 245 244 239 236 229 225
300 255 208 196 161 277 262 194 164 170 226 199 137 154 252 83 77 91 122 131 125 120 121 121 121 120 121 121 121 122 124 125 125 125 130 136 138 138 136 139 144 149 152 152 152 153 154 153 154 158 154 149 149 152 161 164 161 164 164 166 178 193 201 215 239 244 246 259 274 281 287 292 289 286 288 289 290 289 286 284 283 278 270 261 258 259 257 250 247 244 244 248 250 248 246 242 236
323 218 283 281 162 257 296 239 173 180 211 174 136 164 242 104 120 139 137 131 123 117 118 117 117 118 117 116 116 116 116 118 119 121 126 131 135 136 135 136 141 146 149 150 151 151 156 155 150 151 147 143 148 159 167 162 160 168 171 179 189 204 213 226 252 261 264 280 299 301 300 298 291 290 292 293 293 292 290 286 283 277 269 263 261 263 262 256 255 254 252 252 253 253 252 251 247
354 147 215 236 175 215 304 297 212 191 169 151 150 184 269 119 147 154 145 135 124 116 117 115 114 115 114 114 115 115 117 118 119 121 124 127 130 134 137 139 142 145 145 147 150 151 153 152 147 146 144 144 153 164 163 157 169 183 193 205 206 210 224 241 253 266 273 281 296 300 298 294 289 288 289 292 293 292 293 289 282 275 269 266 263 263 264 261 259 259 259 258 257 257 255 253 250
305 91 175 211 186 172 222 297 263 189 154 147 143 85 78 119 145 150 143 134 124 117 119 116 115 116 114 117 117 117 119 122 125 129 131 132 134 136 138 139 142 143 141 142 144 145 146 145 144 143 145 154 166 173 164 166 185 198 211 225 232 226 231 246 257 269 276 278 281 288 296 297 294 292 290 291 294 293 292 289 282 275 269 267 264 262 262 262 261 262 262 260 258 257 257 252 247
229 198 166 217 204 181 197 242 260 167 153 133 89 70 97 109 115 127 133 129 119 117 120 116 118 118 116 117 117 118 119 119 125 134 139 139 139 141 141 140 143 145 143 143 142 143 146 149 150 147 153 165 172 180 181 189 200 207 217 230 242 244 245 253 262 269 276 280 279 288 303 303 298 296 293 290 290 290 289 287 284 278 272 267 263 258 257 259 262 265 265 263 262 260 259 253 245
196 203 169 181 199 225 218 237 240 159 130 84 91 102 115 104 81 95 114 119 115 117 118 115 116 115 114 115 116 120 119 115 123 135 140 140 140 144 146 144 147 149 148 148 147 149 152 154 157 153 156 165 168 177 186 196 210 220 226 231 238 243 250 258 267 273 281 288 285 291 302 304 302 296 290 285 284 284 284 286 285 281 277 271 265 258 255 256 261 265 267 268 269 265 260 254 247
211 240 218 201 195 236 232 238 247 160 107 74 101 102 102 97 90 101 110 113 112 116 115 111 112 111 112 113 113 118 115 115 130 141 141 140 140 144 149 149 152 153 153 158 158 158 160 160 165 160 157 166 171 182 186 187 203 222 229 235 241 243 245 250 261 272 281 285 282 286 293 297 298 294 290 288 286 284 283 284 285 285 283 278 272 265 259 258 260 264 266 267 268 266 261 255 250
240 260 279 263 212 238 242 231 242 126 101 117 104 88 83 96 99 104 110 109 103 108 108 106 110 110 112 113 111 115 113 118 133 140 141 143 142 147 153 151 156 156 152 161 163 164 168 166 172 172 171 179 184 194 199 197 207 220 230 238 243 246 249 247 247 258 268 273 277 283 286 288 286 284 287 291 290 287 283 283 285 287 285 282 279 273 267 264 263 265 266 267 268 267 263 257 253
236 240 250 269 238 249 284 260 214 110 108 154 108 95 90 87 90 85 80 86 91 98 101 105 109 108 112 114 113 116 116 120 129 134 139 137 134 145 155 153 158 160 158 164 169 174 180 176 176 177 179 186 192 202 212 216 217 223 233 240 242 243 249 251 244 244 253 262 274 276 274 277 279 279 282 285 285 286 287 286 286 286 284 283 282 279 275 272 271 270 269 270 270 267 264 260 257
222 217 224 247 191 135 290 279 129 97 111 135 109 98 99 82 80 70 62 75 87 93 98 101 106 106 111 117 118 119 119 121 125 132 140 132 128 141 155 160 156 153 154 160 163 172 183 184 186 192 194 193 199 206 217 227 226 227 232 233 242 244 245 251 251 252 255 257 264 268 268 274 281 283 283 285 286 287 288 287 286 285 284 284 283 282 281 279 278 276 273 272 270 267 266 266 263
231 213 218 222 178 166 214 247 81 76 92 120 105 81 52 88 100 91 86 90 88 95 99 98 104 108 112 116 118 120 121 124 123 129 138 137 137 144 152 168 172 161 164 164 163 178 190 193 205 216 216 201 211 220 224 235 232 230 231 229 233 236 239 253 260 262 260 258 257 256 257 267 279 283 283 287 290 289 288 286 285 285 286 287 285 284 286 286 284 280 277 275 274 272 272 271 267
258 229 220 212 186 185 202 147 101 92 124 149 119 95 317 242 129 133 125 107 98 105 104 104 108 111 115 113 113 118 120 123 121 120 126 130 136 139 142 161 173 171 174 174 191 223 217 215 222 220 220 217 222 230 238 251 247 236 233 229 223 219 223 244 270 268 256 258 262 257 253 258 267 272 276 282 286 286 286 287 286 286 287 288 289 291 291 290 288 285 283 280 276 275 274 272 270
252 236 211 201 187 201 225 182 137 140 183 200 185 127 163 223 168 162 144 125 122 118 114 119 118 114 117 114 114 121 120 118 119 119 124 127 128 128 133 147 159 161 158 162 190 215 203 208 221 210 212 230 238 236 241 251 256 252 244 235 226 229 233 237 268 280 264 261 259 257 258 260 266 265 264 271 279 282 282 284 286 286 286 288 293 295 292 289 287 287 286 282 279 276 273 271 271
238 226 170 175 182 206 234 198 165 176 163 187 234 112 129 202 180 174 153 132 136 133 126 128 127 123 123 122 120 124 125 122 121 122 123 128 135 135 132 135 146 154 150 157 177 195 195 207 223 213 214 235 247 244 244 248 251 253 248 238 229 232 234 234 242 252 262 269 262 256 256 259 266 265 262 267 274 278 279 280 283 284 285 287 291 291 290 289 289 288 286 284 282 280 276 273 273
238 216 164 168 176 205 230 200 166 182 160 170 203 118 120 181 167 167 161 148 154 156 152 144 139 135 129 126 125 124 126 125 123 122 118 122 131 126 119 120 126 130 129 138 157 198 223 219 221 222 223 233 241 241 243 248 246 244 241 237 235 237 239 238 241 242 243 252 263 271 269 269 269 266 267 272 275 276 275 277 278 281 284 285 284 284 286 290 291 290 288 285 283 280 278 277 276
233 209 193 158 147 223 230 185 144 155 179 184 187 166 125 139 176 169 169 174 174 170 171 159 146 142 135 131 132 128 125 124 121 121 116 115 120 115 110 108 101 94 88 86 140 216 224 206 201 212 218 229 243 247 250 251 249 246 243 241 241 244 246 245 247 252 249 248 254 263 273 281 282 272 268 271 279 282 279 278 279 281 283 282 281 283 287 289 290 291 289 288 287 285 283 280 278
230 223 221 134 30 301 279 100 110 143 205 206 193 187 142 148 196 183 182 185 173 167 164 162 148 141 138 135 134 130 126 124 120 118 117 115 116 114 109 95 79 73 71 78 111 126 118 95 84 97 101 111 188 241 250 252 253 252 251 252 253 254 254 253 252 254 255 252 251 255 262 269 274 270 265 266 273 280 281 280 283 283 282 281 284 289 291 290 290 290 290 291 292 290 289 286 282
221 221 183 146 319 307 335 8 78 149 224 237 199 194 155 168 206 203 204 162 161 168 162 157 150 142 140 135 133 132 131 129 123 120 120 118 116 115 115 96 61 76 96 100 101 101 99 86 68 72 74 73 76 79 79 77 68 349 277 266 265 266 269 268 263 259 258 257 254 254 256 259 260 257 256 260 265 273 279 281 282 282 281 281 285 289 292 292 291 291 290 289 290 291 291 289 287
211 201 139 133 247 274 249 249 159 186 238 229 185 185 197 204 221 214 190 149 154 163 151 148 145 142 141 136 135 134 134 133 128 124 120 117 115 111 118 121 93 104 113 105 97 97 99 87 76 77 79 78 76 74 69 62 55 45 37 31 358 320 315 308 293 276 269 268 264 261 259 259 259 254 249 250 255 262 270 276 281 284 285 286 289 291 291 292 291 290 288 286 286 288 290 289 288
199 192 147 142 156 176 233 236 136 203 242 273 172 181 233 283 330 311 148 141 141 138 139 143 141 141 139 134 134 133 132 133 128 125 118 111 110 107 111 117 110 101 102 105 103 102 98 86 80 83 84 79 75 72 62 51 42 33 27 20 6 347 339 336 328 316 300 286 274 265 263 264 266 263 258 253 254 258 262 269 276 281 285 287 292 295 292 291 293 292 292 292 292 291 290 289 289
200 176 136 151 163 156 205 200 164 191 179 19 26 181 233 306 5 30 112 122 126 131 136 138 135 135 131 128 129 127 126 126 123 122 118 113 110 106 102 105 109 103 101 112 114 102 90 83 83 90 89 79 72 66 56 53 51 45 35 11 1 351 342 340 340 343 341 321 292 266 257 257 259 259 258 256 257 261 264 268 273 278 281 280 282 290 291 292 296 296 294 294 294 294 292 290 290
222 150 122 176 179 145 145 179 175 168 134 35 19 112 31 63 62 71 105 113 117 122 123 122 124 125 124 123 124 124 124 123 122 120 115 111 105 97 95 100 108 112 113 116 109 94 90 91 92 91 87 80 73 66 59 56 52 51 47 22 5 356 349 349 349 352 354 348 331 300 278 269 262 258 258 259 259 261 262 265 270 273 274 274 276 280 284 287 292 296 298 296 293 293 294 293 291
206 152 179 207 165 132 127 179 171 111 115 147 196 126 102 96 83 97 113 112 112 113 110 114 119 121 121 122 124 126 126 125 124 120 116 112 105 102 106 113 116 117 117 112 103 99 100 102 100 93 84 75 64 56 54 52 49 57 58 41 22 6 1 359 359 3 360 351 345 339 327 305 284 272 269 269 268 267 264 263 265 264 264 266 271 276 281 283 285 290 296 297 295 293 294 293 293
149 196 214 199 132 109 112 148 235 62 109 200 220 154 160 158 145 147 137 128 128 124 117 119 122 122 122 125 128 128 125 124 123 124 126 121 114 113 116 120 119 116 115 110 105 105 103 102 100 96 87 72 57 48 48 51 54 67 71 60 42 24 14 8 8 12 6 358 4 12 11 358 336 312 296 290 284 279 272 263 260 260 260 262 265 269 275 279 281 284 286 289 292 293 294 292 292
143 178 192 154 155 203 107 145 179 118 109 211 203 175 185 187 164 161 158 152 149 143 133 130 126 126 126 128 131 127 124 125 123 126 132 128 122 119 118 119 117 115 116 114 112 109 105 103 99 93 84 68 56 49 53 59 64 71 72 60 43 29 18 11 13 16 12 13 23 29 26 20 14 2 340 324 308 297 289 274 265 262 261 262 264 266 269 272 276 280 282 284 287 290 292 292 292
105 138 153 113 146 167 165 156 155 141 146 182 174 186 218 209 169 168 168 163 155 150 144 136 131 131 131 132 133 131 130 131 126 125 128 126 123 119 115 112 108 110 112 113 119 115 107 104 98 88 77 64 57 54 60 68 71 70 65 56 46 37 26 18 20 24 25 32 39 39 33 27 23 17 10 2 349 335 323 306 292 282 276 273 273 272 271 272 274 278 282 283 283 286 290 293 293
147 145 186 135 101 127 156 158 123 126 145 163 154 196 245 232 173 172 168 160 155 150 141 134 134 133 133 135 136 137 136 134 130 128 126 123 119 116 112 104 99 105 103 99 110 117 111 104 96 86 74 64 60 60 64 68 71 72 69 65 59 52 41 31 30 33 36 43 48 47 41 35 30 25 21 16 8 2 352 334 324 317 309 303 297 289 283 281 279 279 282 284 284 285 288 291 292
156 163 194 170 133 124 134 226 274 107 134 163 157 194 241 265 189 171 158 151 149 142 134 131 134 134 136 142 143 142 139 135 132 129 125 124 121 116 112 103 96 97 96 92 100 112 113 103 95 86 73 64 61 61 60 61 66 66 63 62 57 51 45 37 37 40 41 42 46 48 44 38 36 33 27 22 17 11 2 349 340 331 325 321 317 309 303 298 294 289 287 287 287 287 288 288 290